Belize, Belize

6:14 PM CST on November 21, 2017 (GMT -0600)
Philip S W Goldson International

Weather History for MZBZ - September, 2014

Change the Weather History Date:

Thursday, September 25, 2014

  Actual Average Record
Temperature  
Mean Temperature 78 °F -  
Max Temperature 82 °F 87 °F 91 °F (2004)
Min Temperature 75 °F 73 °F 73 °F (2012)
Cooling Degree Days 14    
Growing Degree Days 28 (Base 50)    
Moisture  
Dew Point 76 °F    
Average Humidity 92    
Maximum Humidity 100    
Minimum Humidity 78    
Precipitation  
Precipitation 1.77 in 0.34 in - ()
Sea Level Pressure  
Sea Level Pressure 29.88 in    
Wind  
Wind Speed 4 mph ()    
Max Wind Speed 8 mph    
Max Gust Speed -    
Visibility 6.3 miles    
Events Rain , Thunderstorm    
Averages and records for this station are not official NWS values.
T = Trace of Precipitation, MM = Missing Value Source: Averaged Metar Reports

Daily Weather History Graph

Daily Weather History Graph

Search for Another Location

Airport or City:

Trip Planner

Search our weather history database for the weather conditions in past years. The results will help you decide how hot, cold, wet, or windy it might be!

Date:

Astronomy

Sep. 25, 2014 Rise Set
Actual Time 5:42 AM CST 5:46 PM CST
Civil Twilight 5:20 AM CST 6:08 PM CST
Nautical Twilight 4:55 AM CST 6:33 PM CST
Astronomical Twilight 4:30 AM CST 6:58 PM CST
Moon 6:46 AM CST (9/25) 6:48 PM CST (9/25)
Length of Visible Light 12h 47m
Length of Day
12h 04m
New Moon, 2% of the Moon is Illuminated
Sep 25
New Moon
Oct 1
First Quarter
Oct 8
Full
Oct 15
Last Quarter
Oct 23
New

Hourly Weather History & Observations

Time (CST) Temp. Heat Index Dew Point Humidity Pressure Visibility Wind Dir Wind Speed Gust Speed Precip Events Conditions
12:00 AM 77 °F - 76 °F 96% 29.93 in 7 mi NNW 3.5 mph - - Rain , Thunderstorm Thunderstorms and Rain
3:00 AM 76 °F - 75 °F 96% 29.87 in 9 mi NW 5.8 mph - - Rain , Thunderstorm Thunderstorms and Rain
5:00 AM 75.2 °F - 75.2 °F 100% 29.89 in 6.2 mi NNW 5.8 mph - N/A Rain , Thunderstorm Light Thunderstorms and Rain
6:00 AM 76 °F - 75 °F 96% 29.90 in 7 mi Calm Calm - - Rain , Thunderstorm Thunderstorms and Rain
6:00 AM 75.2 °F - 75.2 °F 100% 29.89 in 6.2 mi Calm Calm - N/A Rain , Thunderstorm Light Thunderstorms and Rain
7:00 AM 77.0 °F - 75.2 °F 94% 29.91 in 6.2 mi NNW 5.8 mph - N/A Rain , Thunderstorm Light Thunderstorms and Rain
7:25 AM 77.0 °F - 75.2 °F 94% 29.92 in 6.2 mi North 5.8 mph - N/A   Scattered Clouds
8:00 AM 77.0 °F - 75.2 °F 94% 29.92 in 6.2 mi North 5.8 mph - N/A Rain Light Rain Showers
9:00 AM 77 °F - 77 °F 100% 29.94 in 9 mi NE 3.5 mph - - Rain Light Rain Showers
9:00 AM 77.0 °F - 77.0 °F 100% 29.93 in 6.2 mi NE 3.5 mph - N/A Rain Light Rain Showers
10:00 AM 77.0 °F - 75.2 °F 94% 29.92 in 6.2 mi SSE 2.3 mph - N/A Rain Light Rain
11:00 AM 77.0 °F - 75.2 °F 94% 29.91 in 6.2 mi Calm Calm - N/A Rain Light Rain
12:00 PM 79 °F - 77 °F 92% 29.91 in 11 mi SE 2.3 mph - - Rain Light Rain
12:00 PM 78.8 °F - 77.0 °F 94% 29.90 in 6.2 mi SE 2.3 mph - N/A Rain Light Rain
1:00 PM 80.6 °F 87.1 °F 77.0 °F 89% 29.87 in 6.2 mi ESE 3.5 mph - N/A Rain Light Rain
2:00 PM 80.6 °F 87.1 °F 77.0 °F 89% 29.85 in 6.2 mi ESE 5.8 mph - N/A   Scattered Clouds
3:00 PM 82 °F - 76 °F 78% 29.83 in 12 mi ESE 4.6 mph - - Rain Light Rain Showers
3:00 PM 82.4 °F 90.9 °F 77.0 °F 84% 29.83 in 6.2 mi ESE 4.6 mph - N/A   Mostly Cloudy
4:00 PM 82.4 °F 90.9 °F 77.0 °F 84% 29.83 in 6.2 mi ENE 8.1 mph - N/A   Scattered Clouds
5:00 PM 82.4 °F 89.5 °F 75.2 °F 79% 29.82 in 6.2 mi ENE 5.8 mph - N/A   Scattered Clouds
5:32 PM 82.4 °F 89.5 °F 75.2 °F 79% 29.84 in 0.6 mi ESE 5.8 mph - N/A Rain Heavy Rain Showers
6:00 PM 76 °F - 76 °F 99% 29.84 in 1 mi NE 5.8 mph - - Rain Heavy Rain Showers
6:00 PM 77.0 °F - 75.2 °F 94% 29.83 in 1.1 mi NE 5.8 mph - N/A Rain Heavy Rain Showers
9:00 PM 77 °F - 77 °F 98% 29.90 in 6 mi SSW 3.5 mph - - Rain Light Rain